Location: Austin
(30.3000°N, 97.7500°W)
Time: 13:27:58
(UTC-05:00)

ERS-1 Rocket - Pass Details

Date: 08 April 2026
Orbit: 747 x 751 km, 98.2° (Epoch: 11 April)

Event Time Altitude Azimuth Distance (km) Brightness Sun altitude
Exits shadow 22:03:38 78° 346° (NNW) 765 2.9 -27.2°
Drops below altitude 10° 22:08:17 10° 348° (NNW) 2,267 5.9 -28.1°
Sets 22:10:35 0° 348° (NNW) 3,195 6.8 -28.5°
